Miscellaneous Local Product
Issued by NWS North Platte, NE

Home | Current Version | Previous Version | Graphics & Text | Print | Product List | Glossary On
Versions: 1 2 3 4 5 6 7 8 9 10 11 12 13 14 15 16 17 18 19 20 21 22 23 24 25 26 27 28 29 30 31 32 33 34 35 36 37 38 39 40 41 42 43 44 45 46 47 48 49 50
000
AXUS43 KLBF 240810
MISLBF


WESTERN AND NORTH CENTRAL NEBRASKA HOURLY WEATHER ROUNDUP
NATIONAL WEATHER SERVICE NORTH PLATTE NE
300 AM CDT WED MAY 24 2017

NOTE: "FAIR" INDICATES FEW OR NO CLOUDS BELOW 12,000 FEET WITH NO
SIGNIFICANT WEATHER AND/OR OBSTRUCTIONS TO VISIBILITY.

NOTE: STATIONS NOT REPORTING VARIABLES SUCH AS SKY/WEATHER OR
PRESSURE ARE PROVIDED BY RAWS AND APRS NETWORKS AND ARE NOT UNDER
NATIONAL WEATHER SERVICE QUALITY CONTROL.

...OBSERVATIONS IN AND NEAR THE EASTERN PANHANDLE OF NEBRASKA...

CITY           SKY/WX    TMP DP  RH WIND       PRES   REMARKS
PINE RIDGE     CLEAR     35  34  96 NE5       29.93F WCI  31
GORDON         FAIR      34  32  92 CALM      29.94F
CHADRON        CLOUDY    40  35  83 W3        29.93F
ALLIANCE       CLEAR     35  33  92 SE3       29.94F
SIDNEY         CLEAR     33  31  92 SW9       29.98F WCI  25
CRESCENT LAKE    N/A     39  36  89 S3          N/A
$$

...OBSERVATIONS IN NORTHERN NEBRASKA AND FAR SOUTHERN SOUTH DAKOTA...

CITY           SKY/WX    TMP DP  RH WIND       PRES   REMARKS
WINNER         FAIR      40  37  89 W6        29.91F
VALENTINE      CLEAR     37  32  82 NW5       29.92F WCI  33
THEDFORD       CLEAR     37  35  94 W8        29.94F WCI  30
AINSWORTH      CLEAR     39  38  94 W7        29.92S WCI  34
O`NEILL        PTCLDY    45  41  87 NW6       29.89F
ORD            CLEAR     43  39  86 NW6       29.88F
BROKEN BOW     PTCLDY    47  41  80 NW9       29.90F
VALENTINE NWR    N/A     36  35  95 NW5         N/A  WCI  32
HALSEY           N/A     39  37  92 W3          N/A
BUTTE            N/A     42  39  90 W7          N/A
CHAMBERS         N/A     42  39  89 CALM        N/A
EWING            N/A     45  42  89 NW5         N/A
$$

...OBSERVATIONS IN SOUTHWEST NEBRASKA AND FAR NORTHEAST COLORADO...

CITY           SKY/WX    TMP DP  RH WIND       PRES   REMARKS
WRAY           FAIR      36  36 100 W8        30.00R WCI  29
IMPERIAL       CLEAR     38  33  82 NW5       29.97F WCI  34
OGALLALA       CLOUDY    38  35  91 W5        29.97F WCI  34
NORTH PLATTE   CLEAR     34  33  96 CALM      29.95F
MCCOOK         CLEAR     40  37  89 NW10      29.95F WCI  33
LEXINGTON      MOCLDY    43  39  88 W9        29.92F
STAPLETON        N/A     36  34  91 CALM        N/A
GOTHENBURG       N/A     40  35  84 W3          N/A
CALLAWAY         N/A     41  38  89 NW9         N/A
$$

...OBSERVATIONS IN CENTRAL LINCOLN COUNTY AREA...

CITY           SKY/WX    TMP DP  RH WIND       PRES   REMARKS
N.P. AIRPORT   CLEAR     34  33  96 CALM      29.95F
N.P. DOWNTOWN    N/A     39  36  89 CALM        N/A
N.P. SOUTHEAST   N/A     40  36  86 CALM        N/A
N.P. HILLCREST   N/A     37  35  91 N5          N/A  WCI  33
$$

...SOME OBSERVATIONS FROM AROUND THE REGION...

CITY           SKY/WX    TMP DP  RH WIND       PRES   REMARKS
DENVER         CLEAR     45  34  65 S12       30.01F
LIMON          CLEAR     33  31  92 CALM      30.03F
ASPEN          CLOUDY    35  27  72 SW7       30.19F WCI  29
LARAMIE        CLOUDY    33  29  85 S8        30.02F WCI  26
CASPER         CLOUDY    42  36  79 SW7       29.89F
CHEYENNE       CLOUDY    35  31  85 W7        30.00F WCI  29
SCOTTSBLUFF    PTCLDY    42  37  82 E3        29.96F
GRAND ISLAND   CLOUDY    49  43  80 NW10      29.88F
OMAHA          MOCLDY    50  45  83 N9        29.78F
SIOUX FALLS    CLEAR     45  44  97 N7        29.83F
PIERRE         CLOUDY    37  34  89 W6        29.90F WCI  32
RAPID CITY     CLEAR     39  33  79 SE6       29.91F WCI  35
BISMARCK       MOCLDY    42  38  85 CALM      29.90F
KANSAS CITY    CLEAR     49  46  90 NW8       29.74F
HILL CITY      CLEAR     43  39  86 NW8       29.94F
WICHITA        PTCLDY    49  44  83 NW9       29.85F
DODGE CITY     CLEAR     43  37  79 NW10      29.94F
OKLAHOMA CITY  PTCLDY    51  45  79 NW8       29.87F
DALLAS         CLEAR     61  50  67 W12       29.82F
AMARILLO       CLEAR     44  35  70 SW8       30.01F
$$




USA.gov is the U.S. government's official web portal to all federal, state and local government web resources and services.